Location: Serin Observatory
(40.5200°N, 74.4500°W)
Time: 06:27:17
(UTC+00:00)

SL-8 R/B - Visible Passes

Search period start: 02 September 2015 00:00
Search period end: 12 September 2015 00:00
Orbit: 657 x 669 km, 48.4° (Epoch: 01 September)

Date Brightness Start Highest point End Pass type
(mag) Time Alt. Az. Time Alt. Az. Time Alt. Az.
02 Sep 6.0 06:41:45 22° NE 06:41:45 22° NE 06:43:49 10° ENE visible
02 Sep 5.1 08:19:46 18° NW 08:22:48 36° N 08:27:16 10° ENE visible
03 Sep 5.4 07:11:54 30° NNE 07:11:54 30° NNE 07:15:32 10° ENE visible
03 Sep 4.5 08:49:55 11° NW 08:54:30 51° NNE 08:59:12 10° E visible
04 Sep 5.0 07:42:13 34° N 07:43:00 36° NNE 07:47:29 10° E visible
04 Sep 3.7 09:21:07 10° WNW 09:25:58 88° SSW 09:30:47 10° ESE visible
05 Sep 6.4 06:34:40 15° ENE 06:34:40 15° ENE 06:35:44 10° ENE visible
05 Sep 4.3 08:12:42 32° NW 08:14:40 54° NNE 08:19:24 10° E visible
05 Sep 4.2 09:52:39 10° WNW 09:57:12 41° SW 10:01:41 10° SSE visible
06 Sep 5.8 07:05:24 24° ENE 07:05:24 24° ENE 07:07:42 10° E visible
06 Sep 3.6 08:43:28 27° WNW 08:46:07 83° SSW 08:50:56 10° SE visible
07 Sep 5.0 07:36:27 37° E 07:36:27 37° E 07:39:36 10° ESE visible
07 Sep 4.2 09:14:32 20° W 09:17:19 38° SW 09:21:45 10° SSE visible
08 Sep 5.6 01:10:20 10° SSW 01:11:30 16° S 01:11:30 16° S visible
08 Sep 4.4 08:07:50 43° SE 08:07:50 43° SE 08:11:05 10° SE visible
08 Sep 5.3 09:45:56 12° W 09:48:19 16° SW 09:51:08 10° SSW visible
09 Sep 5.5 00:01:34 10° SSE 00:03:37 13° SE 00:04:56 12° ESE visible
09 Sep 5.2 01:40:49 10° SW 01:43:02 27° SW 01:43:02 27° SW visible
09 Sep 5.1 08:39:29 24° S 08:39:29 24° S 08:41:48 10° SSE visible
10 Sep 4.4 00:30:21 10° SSW 00:34:34 32° SE 00:36:10 26° ESE visible
10 Sep 5.5 02:12:10 10° WSW 02:14:14 25° W 02:14:14 25° W visible
11 Sep 3.6 01:00:56 10° SW 01:05:44 71° SE 01:07:04 46° ENE visible
11 Sep 6.2 02:44:00 10° W 02:45:07 16° W 02:45:07 16° W visible
11 Sep 4.4 23:50:24 10° SSW 23:54:42 34° SE 23:59:04 10° ENE visible
